WA2GUG Weather Reports


time (UTC)temp
C
wind
direction
speed
KPH
gust
KPH
rain 1hr
cm
rain 24hr
cm
rain mn
cm
humidity
%
barometer
mb
20260904163704 31 181 0.0 0.0 0.00 0.00 0.00 99 1008.0
20260904163204 32 188 0.0 0.0 0.00 0.00 0.00 99 1008.0
20260904162704 32 43 0.0 0.0 0.00 0.00 0.00 99 1008.0
20260904162204 31 34 0.0 0.0 0.00 0.00 0.00 99 1008.0
20260904161705 31 91 0.0 0.0 0.00 0.00 0.00 99 1008.0
20260904161204 31 35 0.0 1.6 0.00 0.00 0.00 99 1008.1
20260904160704 31 76 0.0 1.6 0.00 0.00 0.00 99 1008.1
20260904160204 31 309 0.0 0.0 0.00 0.00 0.00 99 1008.2
20260904155704 30 179 0.0 0.0 0.00 0.00 0.00 99 1009.0
20260904155204 30 39 0.0 0.0 0.00 0.00 0.00 99 1009.0
20260904154704 30 40 0.0 1.6 0.00 0.00 0.00 99 1009.0
20260904154204 30 48 0.0 1.6 0.00 0.00 0.00 99 1009.0
20260904153704 31 80 0.0 0.0 0.00 0.00 0.00 99 1008.2
20260904153204 32 179 0.0 0.0 0.00 0.00 0.00 99 1008.2
20260904152704 31 86 0.0 0.0 0.00 0.00 0.00 99 1008.2
20260904152204 30 45 0.0 0.0 0.00 0.00 0.00 99 1008.2
20260904151705 29 85 0.0 0.0 0.00 0.00 0.00 99 1009.0
20260904151204 30 41 0.0 0.0 0.00 0.00 0.00 99 1009.0
20260904150704 32 47 0.0 0.0 0.00 0.00 0.00 99 1009.0
20260904150204 32 183 0.0 1.6 0.00 0.00 0.00 99 1009.0
20260904145704 31 41 0.0 1.6 0.00 0.00 0.00 99 1009.0
20260904145204 31 82 0.0 0.0 0.00 0.00 0.00 99 1009.0
20260904144704 31 88 0.0 0.0 0.00 0.00 0.00 99 1009.0
20260904144204 31 313 0.0 0.0 0.00 0.00 0.00 99 1009.0
20260904143704 30 46 0.0 0.0 0.00 0.00 0.00 99 1009.0
20260904143204 30 2 0.0 1.6 0.00 0.00 0.00 99 1009.0
20260904142704 30 134 0.0 1.6 0.00 0.00 0.00 99 1009.0
20260904142205 30 4 0.0 0.0 0.00 0.00 0.00 99 1009.0
20260904141704 29 318 0.0 0.0 0.00 0.00 0.00 99 1009.0
20260904141204 29 51 0.0 0.0 0.00 0.00 0.00 99 1009.0
20260904140704 28 50 0.0 3.2 0.00 0.00 0.00 99 1009.0
20260904140204 28 78 0.0 3.2 0.00 0.00 0.00 99 1009.0
20260904135704 29 49 0.0 0.0 0.00 0.00 0.00 99 1009.0
20260904135204 28 141 0.0 0.0 0.00 0.00 0.00 99 1009.0
20260904134704 28 46 0.0 1.6 0.00 0.00 0.00 99 1009.0
20260904134204 28 315 0.0 1.6 0.00 0.00 0.00 99 1009.0
20260904133704 28 22 0.0 9.7 0.00 0.00 0.00 99 1009.0
20260904133204 -17 46 1.6 9.7 0.00 0.00 0.00 99 1009.0
20260904132704 -17 8 3.2 8.0 0.00 0.00 0.00 99 1009.0
20260904132204 -17 8 3.2 6.4 0.00 0.00 0.00 99 1009.0
20260904131704 -17 262 1.6 6.4 0.00 0.00 0.00 99 1009.0
20260904131204 -17 11 3.2 6.4 0.00 0.00 0.00 99 1009.0
20260904130704 -17 352 1.6 6.4 0.00 0.00 0.00 99 1009.0
20260904130204 -17 4 1.6 6.4 0.00 0.00 0.00 99 1009.0
20260904125704 -17 225 0.0 6.4 0.00 0.00 0.00 99 1009.0
20260904125204 -17 85 0.0 1.6 0.00 0.00 0.00 99 1009.0
20260904124704 -17 95 0.0 0.0 0.00 0.00 0.00 99 1009.0
20260904124204 -17 33 0.0 0.0 0.00 0.00 0.00 99 1009.0
20260904123704 -17 182 0.0 0.0 0.00 0.00 0.00 99 1009.0
20260904123204 -17 14 0.0 0.0 0.00 0.00 0.00 99 1009.0
20260904122704 -17 87 0.0 0.0 0.00 0.00 0.00 99 1009.0
20260904122204 -17 90 0.0 0.0 0.00 0.00 0.00 99 1008.2
20260904121704 -17 1 0.0 0.0 0.00 0.00 0.00 99 1008.2
20260904121204 -17 190 0.0 0.0 0.00 0.00 0.00 99 1008.2
20260904120704 -17 190 0.0 0.0 0.00 0.00 0.00 99 1009.0
20260904120204 -17 10 0.0 0.0 0.00 0.00 0.00 99 1009.0
20260904115704 -17 96 0.0 0.0 0.00 0.00 0.00 99 1008.2
20260904115204 -17 48 0.0 0.0 0.00 0.00 0.00 99 1008.2
20260904114704 -17 183 0.0 0.0 0.00 0.00 0.00 99 1008.1
20260904114204 -17 157 0.0 0.0 0.00 0.00 0.00 99 1008.1
20260904113704 -17 145 0.0 0.0 0.00 0.00 0.00 99 1008.2
20260904113204 -17 91 0.0 0.0 0.00 0.00 0.00 99 1008.1
20260904112704 -17 34 0.0 0.0 0.00 0.00 0.00 99 1008.0
20260904112204 -17 131 0.0 0.0 0.00 0.00 0.00 99 1008.0
20260904111704 -17 151 0.0 0.0 0.00 0.00 0.00 99 1008.0
20260904111204 -17 141 0.0 0.0 0.00 0.00 0.00 99 1008.0
20260904110704 -17 136 0.0 0.0 0.00 0.00 0.00 99 1008.0
20260904110204 -17 156 0.0 0.0 0.00 0.00 0.00 99 1008.0
20260904105704 -17 135 0.0 0.0 0.00 0.00 0.00 99 1008.0
20260904105204 -17 135 0.0 0.0 0.00 0.00 0.00 99 1008.0
20260904104704 -17 133 0.0 0.0 0.00 0.00 0.00 99 1008.0
20260904104204 -17 0 0.0 0.0 0.00 0.00 0.00 99 1008.0
20260904103704 -17 0 0.0 0.0 0.00 0.00 0.00 99 1008.0
20260904103204 -17 34 0.0 0.0 0.00 0.00 0.00 99 1008.0
20260904102704 -17 123 0.0 0.0 0.00 0.00 0.00 99 1008.0
20260904102204 -17 135 0.0 0.0 0.00 0.00 0.00 99 1008.0
20260904101704 -17 135 0.0 0.0 0.00 0.00 0.00 99 1008.0
20260904101204 -17 136 0.0 0.0 0.00 0.00 0.00 99 1008.0
20260904100704 -17 157 0.0 0.0 0.00 0.00 0.00 99 1008.0
20260904100204 -17 136 0.0 0.0 0.00 0.00 0.00 99 1008.0
20260904095704 -17 138 0.0 0.0 0.00 0.00 0.00 99 1008.0
20260904095204 -17 154 0.0 0.0 0.00 0.00 0.00 99 1008.0
20260904094704 -17 125 0.0 0.0 0.00 0.00 0.00 99 1008.0
20260904094204 -17 131 0.0 0.0 0.00 0.00 0.00 99 1008.0
20260904093704 -17 101 0.0 0.0 0.00 0.00 0.00 99 1008.0
20260904093204 -17 137 0.0 0.0 0.00 0.00 0.00 99 1008.0
20260904092704 -17 88 0.0 0.0 0.00 0.00 0.00 99 1008.0
20260904092204 -17 97 0.0 0.0 0.00 0.00 0.00 99 1008.0
20260904091704 -17 97 0.0 0.0 0.00 0.00 0.00 99 1008.0
20260904091204 -17 114 0.0 0.0 0.00 0.00 0.00 99 1008.0
20260904090704 -17 101 0.0 0.0 0.00 0.00 0.00 99 1008.0
20260904090204 -17 131 0.0 0.0 0.00 0.00 0.00 99 1008.0
20260904085704 -17 123 0.0 0.0 0.00 0.00 0.00 99 1008.0
20260904085204 -17 90 0.0 0.0 0.00 0.00 0.00 99 1008.0
20260904084704 -17 90 0.0 0.0 0.00 0.00 0.00 99 1008.0
20260904084204 -17 90 0.0 0.0 0.00 0.00 0.00 99 1008.0
20260904083704 -17 90 0.0 0.0 0.00 0.00 0.00 99 1008.0
20260904083204 -17 90 0.0 0.0 0.00 0.00 0.00 99 1008.0
20260904082704 -17 65 0.0 0.0 0.00 0.00 0.00 99 1008.0
20260904082204 -17 90 0.0 0.0 0.00 0.00 0.00 99 1008.0
20260904081704 -17 90 0.0 0.0 0.00 0.00 0.00 99 1008.0
20260904081204 -17 99 0.0 0.0 0.00 0.00 0.00 99 1008.0
20260904080704 -17 121 0.0 0.0 0.00 0.00 0.00 99 1008.0
20260904080204 -17 59 0.0 0.0 0.00 0.00 0.00 99 1008.0
20260904075704 -17 92 0.0 0.0 0.00 0.00 0.00 99 1008.0
20260904075204 -17 135 0.0 0.0 0.00 0.00 0.00 99 1008.0
20260904074704 -17 135 0.0 0.0 0.00 0.00 0.00 99 1008.0
20260904074204 -17 130 0.0 0.0 0.00 0.00 0.00 99 1008.0
20260904073704 -17 112 0.0 0.0 0.00 0.00 0.00 99 1008.0
20260904073204 -17 112 0.0 0.0 0.00 0.00 0.00 99 1008.0
20260904072704 -17 93 0.0 0.0 0.00 0.00 0.00 99 1008.0
20260904072204 -17 108 0.0 0.0 0.00 0.00 0.00 99 1008.0
20260904071704 -17 140 0.0 0.0 0.00 0.00 0.00 99 1008.0
20260904071204 -17 135 0.0 0.0 0.00 0.00 0.00 99 1008.0
20260904070704 -17 135 0.0 0.0 0.00 0.00 0.00 99 1008.0
20260904070204 -17 135 0.0 0.0 0.00 0.00 0.00 99 1008.0
20260904065704 -17 135 0.0 0.0 0.00 0.00 0.00 99 1008.0
20260904065204 -17 135 0.0 0.0 0.00 0.00 0.00 99 1008.0
20260904064704 -17 135 0.0 0.0 0.00 0.00 0.00 99 1008.0
20260904064204 -17 135 0.0 0.0 0.00 0.00 0.00 99 1008.0
20260904063704 -17 135 0.0 0.0 0.00 0.00 0.00 99 1008.0
20260904063204 -17 135 0.0 0.0 0.00 0.00 0.00 99 1008.0
20260904062704 -17 135 0.0 0.0 0.00 0.00 0.00 99 1008.0
20260904062204 -17 135 0.0 0.0 0.00 0.00 0.00 99 1008.0
20260904061704 -17 135 0.0 0.0 0.00 0.00 0.00 99 1008.0
20260904061204 -17 135 0.0 0.0 0.00 0.00 0.00 99 1008.0
20260904060704 -17 135 0.0 0.0 0.00 0.00 0.00 99 1008.0
20260904060204 -17 135 0.0 0.0 0.00 0.00 0.00 99 1008.0
20260904055704 -17 135 0.0 0.0 0.00 0.00 0.00 99 1008.0
20260904055204 -17 139 0.0 0.0 0.00 0.00 0.00 99 1008.0
20260904054704 -17 156 0.0 0.0 0.00 0.00 0.00 99 1008.0
20260904054204 -17 142 0.0 0.0 0.00 0.00 0.00 99 1008.0
20260904053704 -17 155 0.0 0.0 0.00 0.00 0.00 99 1008.0
20260904053204 -17 109 0.0 0.0 0.00 0.00 0.00 99 1008.0
20260904052704 -17 333 0.0 0.0 0.00 0.00 0.00 99 1008.0
20260904052204 -17 0 0.0 0.0 0.00 0.00 0.00 99 1008.0
20260904051704 -17 0 0.0 0.0 0.00 0.00 0.00 99 1008.0
20260904051204 -17 26 0.0 0.0 0.00 0.00 0.00 99 1008.0
20260904050704 -17 134 0.0 0.0 0.00 0.00 0.00 99 1008.0
20260904050204 -17 109 0.0 0.0 0.00 0.00 0.00 99 1008.0
20260904045704 -17 90 0.0 0.0 0.00 0.00 0.00 99 1008.0
20260904045204 -17 90 0.0 0.0 0.00 0.00 0.00 99 1008.0
20260904044704 -17 90 0.0 0.0 0.00 0.00 0.00 99 1008.0
20260904044204 -17 120 0.0 0.0 0.00 0.00 0.00 99 1008.0
20260904043704 -17 135 0.0 0.0 0.00 0.00 0.00 99 1008.0
20260904043204 -17 136 0.0 0.0 0.00 0.00 0.00 99 1008.1
20260904042704 -17 163 0.0 0.0 0.00 0.00 0.00 99 1008.2
20260904042204 -17 265 0.0 0.0 0.00 0.00 0.00 99 1008.2
20260904041704 -17 270 0.0 0.0 0.00 0.00 0.00 99 1008.0
20260904041204 -17 135 0.0 0.0 0.00 0.00 0.00 99 1008.0
20260904040704 -17 183 0.0 0.0 0.00 0.00 0.00 99 1008.0
20260904040204 -17 204 0.0 0.0 0.00 0.00 0.00 99 1008.0
20260904035703 -17 0 0.0 0.0 0.00 0.00 0.00 99 1008.1
20260904035204 -17 36 0.0 0.0 0.00 0.00 0.00 99 1008.1
20260904034703 -17 168 0.0 0.0 0.00 0.00 0.00 99 1008.1
20260904034203 -17 119 0.0 0.0 0.00 0.00 0.00 99 1008.1
20260904033703 -17 165 0.0 0.0 0.00 0.00 0.00 99 1009.0
20260904033203 -17 163 0.0 0.0 0.00 0.00 0.00 99 1008.2
20260904032703 -17 118 0.0 0.0 0.00 0.00 0.00 99 1009.0
20260904032203 -17 119 0.0 0.0 0.00 0.00 0.00 99 1008.1
20260904031704 -17 144 0.0 0.0 0.00 0.00 0.00 99 1008.1
20260904031203 -17 203 0.0 0.0 0.00 0.00 0.00 99 1008.0
20260904030703 -17 100 0.0 0.0 0.00 0.00 0.00 99 1009.0
20260904030203 -17 299 0.0 0.0 0.00 0.00 0.00 99 1008.2
20260904025703 -17 164 0.0 0.0 0.00 0.00 0.00 99 1008.2
20260904025204 -17 167 0.0 0.0 0.00 0.00 0.00 99 1008.2
20260904024703 -17 359 0.0 0.0 0.00 0.00 0.00 99 1009.0
20260904024203 -17 342 0.0 0.0 0.00 0.00 0.00 99 1008.2
20260904023703 -17 94 0.0 0.0 0.00 0.00 0.00 99 1009.0
20260904023203 -17 137 0.0 0.0 0.00 0.00 0.00 99 1008.2
20260904022703 -17 135 0.0 0.0 0.00 0.00 0.00 99 1009.0
20260904022203 -17 147 0.0 0.0 0.00 0.00 0.00 99 1009.0
20260904021704 -17 292 0.0 0.0 0.00 0.00 0.00 99 1009.0
20260904021203 -17 292 0.0 0.0 0.00 0.00 0.00 99 1009.0
20260904020703 -17 292 0.0 0.0 0.00 0.00 0.00 99 1009.0
20260904020203 -17 292 0.0 0.0 0.00 0.00 0.00 99 1009.0
20260904015703 -17 292 0.0 0.0 0.00 0.00 0.00 99 1009.0
20260904015203 -17 304 0.0 0.0 0.00 0.00 0.00 99 1009.0
20260904014703 -17 349 0.0 0.0 0.00 0.00 0.00 99 1009.0
20260904014203 -17 111 0.0 0.0 0.00 0.00 0.00 99 1009.0
20260904013703 -17 135 0.0 0.0 0.00 0.00 0.00 99 1009.0
20260904013203 -17 135 0.0 0.0 0.00 0.00 0.00 99 1009.0
20260904012703 -17 135 0.0 0.0 0.00 0.00 0.00 99 1009.0
20260904012203 20 118 0.0 0.0 0.00 0.00 0.00 99 1009.0
20260904011703 21 57 0.0 0.0 0.00 0.00 0.00 99 1009.0
20260904011203 21 45 0.0 0.0 0.00 0.00 0.00 99 1009.0
20260904010703 21 33 0.0 0.0 0.00 0.00 0.00 99 1009.0
20260904010203 21 135 0.0 0.0 0.00 0.00 0.00 99 1009.0
20260904005703 21 134 0.0 0.0 0.00 0.00 0.00 99 1009.0
20260904005203 21 135 0.0 0.0 0.00 0.00 0.00 99 1009.0
20260904004703 21 135 0.0 0.0 0.00 0.00 0.00 99 1009.0
20260904004203 21 69 0.0 0.0 0.00 0.00 0.00 99 1009.0
20260904003703 21 132 0.0 0.0 0.00 0.00 0.00 99 1009.0
20260904003203 21 130 0.0 0.0 0.00 0.00 0.00 99 1009.0
20260904002703 21 90 0.0 0.0 0.00 0.00 0.00 99 1009.0
20260904002203 21 142 0.0 0.0 0.00 0.00 0.00 99 1009.0
20260904001703 22 122 0.0 0.0 0.00 0.00 0.00 99 1009.0
20260904001203 22 135 0.0 0.0 0.00 0.00 0.00 99 1008.2
20260904000703 22 153 0.0 0.0 0.00 0.00 0.00 99 1009.0
20260904000204 22 157 0.0 0.0 0.00 0.00 0.00 99 1009.0
20260903235703 22 144 0.0 0.0 0.00 0.00 0.00 99 1008.2
20260903235203 22 177 0.0 0.0 0.00 0.00 0.00 99 1008.2
20260903234703 23 151 0.0 0.0 0.00 0.00 0.00 99 1009.0
20260903234203 23 160 0.0 0.0 0.00 0.00 0.00 99 1008.2
20260903233703 23 135 0.0 0.0 0.00 0.00 0.00 99 1009.0
20260903233203 23 135 0.0 0.0 0.00 0.00 0.00 99 1009.0
20260903232703 23 169 0.0 0.0 0.00 0.00 0.00 99 1008.1
20260903232203 23 191 0.0 0.0 0.00 0.00 0.00 99 1008.1
20260903231703 23 180 0.0 0.0 0.00 0.00 0.00 99 1008.1
20260903231203 23 221 0.0 0.0 0.00 0.00 0.00 99 1008.0
20260903230703 24 213 0.0 0.0 0.00 0.00 0.00 99 1008.0
20260903230203 25 169 0.0 0.0 0.00 0.00 0.00 99 1008.1
20260903225703 25 177 0.0 0.0 0.00 0.00 0.00 99 1008.2
20260903225203 25 177 0.0 0.0 0.00 0.00 0.00 99 1008.2
20260903224703 26 181 0.0 0.0 0.00 0.00 0.00 99 1008.1
20260903224203 27 202 0.0 0.0 0.00 0.00 0.00 99 1008.0
20260903223703 27 203 0.0 0.0 0.00 0.00 0.00 99 1008.0
20260903223203 28 225 0.0 0.0 0.00 0.00 0.00 99 1008.0
20260903222703 28 225 0.0 0.0 0.00 0.00 0.00 99 1008.1
20260903222203 30 225 0.0 0.0 0.00 0.00 0.00 99 1008.0
20260903221703 31 225 0.0 0.0 0.00 0.00 0.00 99 1008.0
20260903221203 32 225 0.0 0.0 0.00 0.00 0.00 99 1008.0
20260903220703 32 225 0.0 0.0 0.00 0.00 0.00 99 1008.0
20260903220203 31 218 0.0 0.0 0.00 0.00 0.00 99 1008.0
20260903215703 31 181 0.0 0.0 0.00 0.00 0.00 99 1008.0
20260903215203 31 172 0.0 0.0 0.00 0.00 0.00 99 1008.0
20260903214703 31 177 0.0 0.0 0.00 0.00 0.00 99 1008.0
20260903214203 31 78 0.0 0.0 0.00 0.00 0.00 99 1008.0
20260903213703 32 150 0.0 0.0 0.00 0.00 0.00 99 1008.0
20260903213203 33 349 0.0 0.0 0.00 0.00 0.00 99 1008.0
20260903212703 34 45 0.0 0.0 0.00 0.00 0.00 99 1008.0
20260903212203 34 330 0.0 0.0 0.00 0.00 0.00 99 1008.0
20260903211703 35 9 0.0 0.0 0.00 0.00 0.00 99 1008.0
20260903211203 36 43 0.0 0.0 0.00 0.00 0.00 99 1008.0
20260903210703 37 12 0.0 0.0 0.00 0.00 0.00 99 1008.0
20260903210203 38 249 0.0 0.0 0.00 0.00 0.00 99 1008.0
20260903205703 38 349 0.0 0.0 0.00 0.00 0.00 99 1008.0
20260903205203 38 8 0.0 0.0 0.00 0.00 0.00 99 1008.0
20260903204703 38 41 0.0 0.0 0.00 0.00 0.00 99 1008.0
20260903204203 37 186 0.0 0.0 0.00 0.00 0.00 99 1008.0
20260903203703 36 352 0.0 0.0 0.00 0.00 0.00 99 1008.0
20260903203203 37 22 0.0 0.0 0.00 0.00 0.00 99 1008.0
20260903202703 37 84 0.0 0.0 0.00 0.00 0.00 99 1008.0
20260903202203 37 305 0.0 0.0 0.00 0.00 0.00 99 1008.0
20260903201703 36 173 0.0 0.0 0.00 0.00 0.00 99 1008.0
20260903201203 36 313 0.0 0.0 0.00 0.00 0.00 99 1008.0
20260903200703 36 69 0.0 0.0 0.00 0.00 0.00 99 1008.0
20260903200203 36 4 0.0 0.0 0.00 0.00 0.00 99 1008.0
20260903195703 35 39 0.0 1.6 0.00 0.00 0.00 99 1008.0
20260903195203 36 358 0.0 1.6 0.00 0.00 0.00 99 1008.0
20260903194703 35 89 0.0 1.6 0.00 0.00 0.00 99 1008.0
20260903194203 35 44 0.0 1.6 0.00 0.00 0.00 99 1008.0
20260903193703 35 41 0.0 0.0 0.00 0.00 0.00 99 1008.0
20260903193203 36 34 0.0 0.0 0.00 0.00 0.00 99 1008.0
20260903192703 -17 354 0.0 0.0 0.00 0.00 0.00 99 1008.0
20260903192203 -17 272 0.0 0.0 0.00 0.00 0.00 99 1008.0
20260903191703 30 243 0.0 0.0 0.00 0.00 0.00 99 1008.0
20260903191203 29 145 0.0 0.0 0.00 0.00 0.00 99 1008.2
20260903190703 29 223 0.0 0.0 0.00 0.00 0.00 99 1008.2
20260903190203 28 239 0.0 0.0 0.00 0.00 0.00 99 1008.2
20260903185703 28 229 0.0 0.0 0.00 0.00 0.00 99 1008.2
20260903185203 28 152 0.0 0.0 0.00 0.00 0.00 99 1009.0
20260903184703 28 216 0.0 0.0 0.00 0.00 0.00 99 1009.0
20260903184203 29 168 0.0 0.0 0.00 0.00 0.00 99 1009.0
20260903183703 30 220 0.0 0.0 0.00 0.00 0.00 99 1009.0
20260903183203 32 267 0.0 0.0 0.00 0.00 0.00 99 1009.0
20260903182703 33 264 0.0 0.0 0.00 0.00 0.00 99 1009.0
20260903182203 35 266 0.0 0.0 0.00 0.00 0.00 99 1009.0
20260903181703 -17 221 0.0 0.0 0.00 0.00 0.00 99 1009.0
20260903181203 33 309 0.0 0.0 0.00 0.00 0.00 99 1009.0
20260903180703 33 293 0.0 0.0 0.00 0.00 0.00 99 1009.0
20260903180203 -17 240 0.0 0.0 0.00 0.00 0.00 99 1009.0
20260903175703 -17 243 0.0 0.0 0.00 0.00 0.00 99 1009.0
20260903175203 -17 228 0.0 0.0 0.00 0.00 0.00 99 1009.0
20260903174703 29 179 0.0 0.0 0.00 0.00 0.00 99 1009.0
20260903174203 29 249 0.0 0.0 0.00 0.00 0.00 99 1009.0
20260903173703 29 278 0.0 0.0 0.00 0.00 0.00 99 1009.0
20260903173203 -17 198 0.0 0.0 0.00 0.00 0.00 99 1009.0
20260903172703 -17 264 0.0 0.0 0.00 0.00 0.00 99 1009.0
20260903172203 -17 233 0.0 0.0 0.00 0.00 0.00 99 1009.0
20260903171703 -17 163 0.0 0.0 0.00 0.00 0.00 99 1009.0
20260903171203 -17 252 0.0 0.0 0.00 0.00 0.00 99 1009.0
20260903170703 -17 294 0.0 0.0 0.00 0.00 0.00 99 1009.0
20260903170203 -17 276 0.0 0.0 0.00 0.00 0.00 99 1009.0
20260903165703 -17 171 0.0 0.0 0.00 0.00 0.00 99 1009.0
20260903165203 -17 166 0.0 0.0 0.00 0.00 0.00 99 1009.0
20260903164703 -17 54 0.0 0.0 0.00 0.00 0.00 99 1009.0
20260903164203 -17 261 0.0 0.0 0.00 0.00 0.00 99 1009.0